COSMOS 1275 DEB, 19025

Orbit data source: Space-Track

COSMOS 1275 DEB, 19025 is space debris in LEO originally from a launch on Thu, 04 Jun 1981 UTC launched from the Plesetsk Missile And Space Complex (PKMTR). Debris objects in space refer to the collection of defunct objects orbiting the Earth. Examples of debris include non-operational satellites, rocket bodies, and fragments generated from explosions, collisions, or faulty payload assembly.

Loading next visibility...
Identifier
19025, 1981-053MC
Orbit
LEO
Country
Flag of CISCIS
Related business
Manufacturer
Unknown
Mission
Spacecraft
Bus & Motor
Unknown
Mass
Unknown
Launch date (UTC)
1981-06-04 (45 years ago)
Launch vehicle
Unknown
Launch site
Plesetsk Missile And Space Complex (PKMTR)
Object type
Payload
Rocket body
Debris
Shape & HBR
Unknown shape, 0.1 m
Radar Cross Section
Small (<0.1 m²)

Expand to show TLE details & history
Last TLE update: 10 hours ago

TLE from 10 hours ago
0 COSMOS 1275 DEB
1 19025U 81053MC  26035.78898337  .00005747  00000-0  22106-2 0  9999
2 19025  82.7019 228.7383 0023077 200.3145 159.7125 14.30113989 84307
Epoch: 2026-02-04T18:56Z
TLE epoch observation values (Epoch: 2026-02-04T18:56:08.163Z)
Latitude
-0.00007°
Longitude
169.75375°
Altitude
809.846 km
Speed
7.44 km/s
True Right ascension
15h 14m 57s
True Declination
0° 00' 00"
Sunlit
Object was in daylight at epoch
Visualization orbit readout
Latitude
Unknown
Longitude
Unknown
Altitude
Unknown
Speed
Unknown
Apparent Right ascension
Unknown
Apparent Declination
Unknown
Sunlit
N/A
Visualization observer readout
Local Sidereal Time
06:44:33
Azimuth
Unknown
Elevation
Unknown
Doppler factor
Unknown
Orbital elements
Apogee altitude
804.971 km
Perigee altitude
771.894 km
Semi-major axis
7,166.569 km
Eccentricity
0.00231
Inclination
82.7019°
RAAN
228.7383°
Arg. of periapsis
200.3145°
True anomaly
159.80394°
Mean anomaly
159.7125°
Eccentric anomaly
159.75825°
Mean motion
3.57747 °/min
Orbital period
100.63 mins
BSTAR
0.0022106
Loading maneuver chart data...
Computing Atmospheric mass density...
Loading historical data...
Loading historical data...
Loading historical data...
Loading historical data...
Loading historical data...
Loading historical data...
Loading historical data...

Documentation

Showing up to 5 results
|